Simultaneous Nadir Overpasses (SNOs) Predictions

Prediction of SNOs between LANDSAT-8 and METOP-B Satellite Orbit:

Table of predicted SNOs for the next 14.0 days since TLE Epoch: 10/24/2020
Index Date (LANDSAT-8) Time (LANDSAT-8) Lat,Lon (LANDSAT-8) SZA (LANDSAT-8 ) Date (METOP-B) Time (METOP-B) Lat,Lon (METOP-B) SZA (METOP-B ) Distance(km) Time Diff (sec)
1 10/24/2020 11:32:47 -81.11,-133.34 84.50 10/24/2020 11:32:19 -81.11,-133.31 84.51 0.39 28
2 10/24/2020 12:22:13 81.12, 34.44 95.53 10/24/2020 12:22:58 81.13, 34.46 95.56 0.69 45
3 10/27/2020 07:07:02 -81.12, -66.88 83.54 10/27/2020 07:06:43 -81.11, -67.02 83.57 2.43 19
4 10/27/2020 07:56:28 81.12, 100.87 96.49 10/27/2020 07:57:22 81.13, 100.74 96.51 2.22 54
5 10/30/2020 02:41:16 -81.11, -0.46 82.61 10/30/2020 02:41:05 -81.12, -0.37 82.60 1.71 11
6 10/30/2020 03:30:41 81.14, 167.63 97.47 10/30/2020 03:31:43 81.15, 167.77 97.52 2.32 62
7 11/01/2020 22:15:31 -81.11, 65.93 81.72 11/01/2020 22:15:29 -81.11, 65.90 81.72 0.62 2
8 11/01/2020 23:04:56 81.14,-126.01 98.36 11/01/2020 23:06:07 81.14,-125.98 98.40 0.55 71
9 11/04/2020 17:00:19 81.11, -35.35 99.13 11/04/2020 16:59:12 81.10, -35.38 99.10 0.74 67
